Temp
87 87 87 87 88 89 89 89 90 89 89 91 92 91 91 91 91 92 93 92 91 91 91 90 90 89 90 90 89 89 89 89 90 91 90 90 90 90 90 90 90 90
86 87 87 88 88 88 89 90 89 89 88 89 91 92 91 91 92 92 92 91 91 91 91 91 90 89 89 90 89 89 88 89 88 92 89 89 89 90 91 91 91 90
87 87 87 88 89 89 91 90 89 90 91 91 91 91 93 93 92 91 91 92 91 93 91 90 90 90 90 90 89 89 89 87 88 92 90 89 90 90 91 93 93 91
86 87 88 89 90 90 90 90 90 89 91 91 91 93 93 94 92 92 90 90 91 91 92 92 91 92 90 90 89 89 90 88 89 89 89 89 89 91 90 91 92 93
87 87 89 89 90 90 90 90 91 91 91 91 93 92 91 90 91 92 91 90 89 91 91 91 91 91 90 90 89 89 90 90 90 88 88 88 89 90 91 91 90 90
88 88 88 88 89 89 90 90 90 91 91 93 92 93 92 91 91 91 91 92 92 92 93 93 92 92 92 90 89 89 90 91 92 88 88 87 90 92 93 91 90 89
89 88 89 90 90 90 89 89 90 90 92 93 92 91 92 92 90 90 91 91 92 92 93 91 90 91 92 91 89 88 89 89 90 89 87 88 88 89 92 91 89 89
90 90 90 90 90 90 89 90 91 90 91 91 92 91 92 93 91 92 91 91 92 91 90 91 90 89 92 91 89 88 89 91 90 88 87 87 88 87 88 90 90 88
91 90 90 90 91 92 93 93 92 92 92 91 92 94 92 92 92 93 90 90 90 90 89 90 89 90 90 91 90 89 89 90 91 90 88 88 88 88 89 89 89 88
90 91 92 92 92 93 93 94 95 94 92 92 93 95 93 91 92 92 91 89 89 89 89 89 89 90 90 91 90 89 89 88 89 89 90 89 89 90 90 89 89 88
92 93 92 92 93 94 95 95 96 96 94 93 94 94 95 93 91 92 90 89 90 89 89 89 89 90 89 91 91 91 90 91 90 89 89 89 90 90 89 90 90 90
91 93 93 93 93 95 95 96 96 96 96 94 94 93 94 95 93 92 91 89 89 90 90 89 89 89 89 90 93 93 91 91 91 90 90 90 90 91 91 90 90 90
93 93 93 94 93 95 96 96 96 97 97 96 95 94 94 95 95 92 91 91 90 90 91 90 89 90 89 89 90 91 90 90 91 91 91 91 91 92 93 93 92 91
93 94 93 92 93 91 93 95 96 96 95 95 94 94 95 95 96 94 93 93 91 91 91 90 90 90 89 89 89 90 91 90 90 90 92 92 91 92 93 94 94 94
92 93 93 92 91 90 90 92 94 94 94 94 93 94 96 97 97 97 94 92 92 91 91 91 91 90 91 90 89 89 90 91 90 90 91 90 91 93 93 92 93 95
90 90 90 90 90 89 89 90 93 93 95 94 93 93 93 93 94 94 96 94 92 91 91 91 91 92 84 75 79 89 90 91 91 90 90 90 89 89 92 93 94 95
89 89 89 88 88 88 88 88 90 92 92 90 91 91 91 91 92 93 94 95 94 93 92 92 92 92 74 68 70 73 87 90 90 89 89 89 90 88 88 90 93 93
90 88 88 87 87 87 87 88 89 90 89 89 90 91 89 92 91 91 91 94 94 94 94 93 93 79 68 67 68 68 74 89 91 90 90 90 89 90 90 90 90 93
88 88 87 87 87 87 87 87 87 88 89 89 90 90 90 88 88 90 90 91 92 91 93 94 95 74 65 65 66 66 67 77 91 91 91 91 90 89 90 89 90 90
88 87 87 87 87 87 87 86 86 86 89 91 91 89 88 88 90 89 89 88 89 90 90 93 94 73 64 63 64 64 65 71 89 90 90 91 90 90 90 90 89 89
87 87 86 87 87 86 86 86 86 86 87 89 90 90 88 87 88 88 88 88 90 91 90 91 95 68 63 62 62 61 63 68 86 88 89 89 89 90 89 90 90 89
88 87 86 87 86 86 86 86 86 86 86 88 89 91 90 91 89 90 89 89 89 90 90 90 94 66 61 61 60 60 62 77 84 85 86 88 88 89 89 89 89 89
89 88 87 86 86 86 86 86 86 86 86 88 88 89 89 89 89 90 89 90 90 89 89 89 93 73 59 59 59 58 65 82 84 85 85 86 87 88 89 89 89 89
88 88 87 87 86 86 86 87 87 87 87 88 87 88 89 90 90 90 91 91 91 90 91 90 92 77 58 58 57 57 68 83 84 85 85 85 86 87 88 88 88 83
89 88 88 88 86 87 88 87 87 87 88 88 89 89 89 90 89 90 91 91 94 93 81 87 93 81 58 60 56 56 69 84 85 85 84 85 86 86 88 89 88 85
89 88 88 89 88 87 87 87 88 88 88 88 89 90 91 92 91 91 90 91 93 93 93 92 91 93 74 57 57 55 60 82 86 85 84 84 86 86 88 88 88 88
MSLP
1015.75 1015.99 1016.35 1016.63 1016.75 1016.79 1016.99 1017.35 1017.43 1017.79 1017.95 1017.91 1018.11 1018.19 1018.31 1018.23 1018.27 1018.39 1018.51 1018.67 1018.95 1019.19 1019.35 1019.55 1019.63 1019.87 1019.95 1020.07 1020.19 1020.39 1020.51 1020.55 1020.47 1020.35 1020.59 1020.71 1020.83 1020.91 1021.03 1021.07 1020.99 1021.07
1015.43 1015.63 1015.91 1016.15 1016.43 1016.51 1016.63 1016.71 1017.03 1017.27 1017.59 1017.67 1017.63 1017.67 1017.79 1017.91 1018.07 1018.19 1018.43 1018.63 1018.75 1018.99 1019.03 1019.23 1019.43 1019.63 1019.75 1019.87 1020.07 1020.31 1020.47 1020.47 1020.63 1020.11 1020.51 1020.67 1020.67 1020.63 1020.75 1020.71 1020.79 1020.71
1015.03 1015.35 1015.67 1015.99 1016.07 1016.23 1016.23 1016.35 1016.59 1016.83 1017.07 1017.19 1017.27 1017.39 1017.55 1017.63 1017.91 1017.99 1018.15 1018.35 1018.59 1018.59 1018.83 1018.99 1019.19 1019.35 1019.51 1019.63 1019.79 1020.07 1020.23 1020.43 1020.51 1020.07 1020.23 1020.51 1020.35 1020.51 1020.39 1020.27 1020.35 1020.51
1014.63 1014.83 1015.11 1015.31 1015.43 1015.75 1015.87 1016.15 1016.39 1016.55 1016.59 1016.95 1017.07 1016.99 1017.19 1017.27 1017.51 1017.79 1017.99 1018.19 1018.39 1018.55 1018.51 1018.67 1018.91 1018.99 1019.23 1019.39 1019.59 1019.83 1019.87 1020.07 1019.99 1019.99 1020.19 1020.19 1020.23 1020.19 1020.23 1020.19 1020.15 1020.15
1014.15 1014.47 1014.63 1014.83 1014.99 1015.23 1015.51 1015.87 1016.07 1016.19 1016.35 1016.39 1016.51 1016.71 1016.99 1017.27 1017.43 1017.59 1017.79 1017.99 1018.19 1018.35 1018.43 1018.59 1018.67 1018.83 1018.95 1019.19 1019.39 1019.71 1019.67 1019.83 1019.75 1019.91 1020.19 1020.31 1020.07 1020.07 1020.03 1020.07 1020.31 1020.39
1013.59 1013.79 1014.11 1014.47 1014.67 1014.99 1015.31 1015.51 1015.63 1015.75 1015.95 1016.15 1016.31 1016.31 1016.59 1016.87 1017.15 1017.31 1017.47 1017.71 1017.79 1017.99 1018.11 1018.15 1018.39 1018.47 1018.59 1018.91 1019.19 1019.39 1019.39 1019.47 1019.35 1019.71 1020.03 1020.19 1020.03 1019.67 1019.67 1019.79 1020.11 1020.39
1013.15 1013.47 1013.83 1013.99 1014.31 1014.55 1014.91 1015.07 1015.19 1015.35 1015.51 1015.55 1015.75 1016.15 1016.19 1016.55 1016.91 1017.03 1017.19 1017.35 1017.47 1017.63 1017.79 1017.95 1018.19 1018.31 1018.31 1018.55 1018.95 1019.23 1019.23 1019.27 1019.27 1019.47 1019.91 1019.87 1019.87 1019.87 1019.51 1019.63 1019.91 1020.11
1012.55 1012.83 1013.23 1013.55 1013.95 1014.19 1014.55 1014.71 1014.87 1015.07 1015.15 1015.35 1015.63 1015.75 1015.87 1016.19 1016.47 1016.59 1016.79 1016.99 1017.23 1017.43 1017.59 1017.71 1017.91 1018.19 1018.19 1018.27 1018.71 1018.99 1019.11 1018.95 1019.19 1019.35 1019.63 1019.75 1019.67 1019.87 1019.75 1019.55 1019.67 1019.99
1011.99 1012.39 1012.75 1013.15 1013.51 1013.71 1014.03 1014.19 1014.39 1014.59 1014.71 1015.11 1015.27 1015.31 1015.47 1015.71 1015.95 1016.15 1016.43 1016.67 1016.95 1017.15 1017.35 1017.55 1017.71 1017.87 1017.95 1018.07 1018.31 1018.59 1018.83 1018.79 1018.67 1018.95 1019.27 1019.51 1019.63 1019.63 1019.55 1019.39 1019.63 1019.71
1011.63 1011.83 1012.23 1012.59 1012.99 1013.11 1013.43 1013.55 1013.67 1013.99 1014.23 1014.59 1014.79 1014.79 1015.11 1015.35 1015.47 1015.71 1016.03 1016.43 1016.71 1016.91 1017.11 1017.27 1017.43 1017.55 1017.67 1017.75 1018.03 1018.19 1018.43 1018.59 1018.59 1018.63 1018.75 1018.91 1019.07 1019.07 1019.07 1019.19 1019.35 1019.51
1011.07 1011.31 1011.75 1012.07 1012.31 1012.43 1012.75 1012.95 1013.11 1013.35 1013.67 1014.11 1014.31 1014.51 1014.55 1014.87 1015.27 1015.35 1015.75 1016.07 1016.39 1016.55 1016.75 1016.91 1017.03 1017.19 1017.39 1017.43 1017.47 1017.63 1017.91 1018.07 1018.19 1018.31 1018.43 1018.51 1018.59 1018.63 1018.67 1018.79 1018.91 1019.03
1010.51 1010.79 1011.11 1011.47 1011.71 1011.91 1012.15 1012.35 1012.55 1012.83 1013.15 1013.51 1013.75 1014.15 1014.27 1014.35 1014.79 1015.03 1015.27 1015.67 1015.87 1016.03 1016.19 1016.43 1016.55 1016.71 1016.95 1017.07 1017.11 1017.19 1017.43 1017.59 1017.67 1017.87 1017.99 1018.07 1018.15 1018.19 1018.27 1018.35 1018.55 1018.59
1009.83 1010.19 1010.43 1010.79 1011.19 1011.39 1011.51 1011.79 1012.11 1012.27 1012.59 1012.99 1013.23 1013.51 1013.87 1014.07 1014.19 1014.63 1014.75 1015.07 1015.39 1015.55 1015.75 1015.99 1016.19 1016.35 1016.55 1016.75 1016.83 1016.95 1017.15 1017.35 1017.43 1017.51 1017.59 1017.67 1017.67 1017.71 1017.67 1017.75 1017.91 1018.03
1009.03 1009.39 1009.87 1010.23 1010.51 1010.95 1011.19 1011.39 1011.63 1011.87 1012.15 1012.39 1012.75 1013.19 1013.35 1013.51 1013.71 1014.03 1014.31 1014.55 1014.83 1015.11 1015.27 1015.43 1015.79 1016.03 1016.19 1016.35 1016.51 1016.67 1016.87 1017.07 1017.19 1017.27 1017.27 1017.35 1017.35 1017.35 1017.31 1017.31 1017.35 1017.39
1008.47 1008.91 1009.35 1009.83 1010.23 1010.71 1011.07 1011.27 1011.39 1011.63 1011.83 1012.15 1012.47 1012.75 1012.75 1012.87 1013.03 1013.27 1013.83 1014.23 1014.39 1014.63 1014.87 1015.03 1015.31 1015.55 1015.63 1015.91 1016.23 1016.43 1016.43 1016.67 1016.83 1016.95 1017.03 1017.15 1017.19 1017.07 1017.03 1017.11 1017.03 1016.91
1008.15 1008.55 1009.03 1009.43 1009.99 1010.43 1010.79 1010.99 1011.15 1011.39 1011.59 1011.99 1012.23 1012.43 1012.55 1012.63 1012.79 1012.99 1013.27 1013.71 1014.15 1014.35 1014.51 1014.67 1014.83 1014.87 1015.03 1015.39 1015.59 1015.79 1016.07 1016.19 1016.35 1016.51 1016.63 1016.75 1016.99 1017.11 1016.99 1016.79 1016.71 1016.59
1007.95 1008.39 1008.75 1009.35 1009.59 1010.03 1010.39 1010.79 1010.99 1011.15 1011.47 1011.79 1012.07 1012.23 1012.43 1012.59 1012.75 1012.99 1013.03 1013.11 1013.55 1013.91 1014.19 1014.27 1014.27 1014.27 1014.63 1015.11 1015.43 1015.59 1015.63 1015.87 1016.11 1016.23 1016.27 1016.51 1016.63 1016.83 1016.95 1016.71 1016.43 1016.31
1007.59 1008.07 1008.59 1008.99 1009.39 1009.79 1010.11 1010.39 1010.71 1010.99 1011.35 1011.59 1011.87 1012.11 1012.31 1012.31 1012.67 1012.83 1012.91 1012.91 1013.07 1013.31 1013.59 1013.71 1013.79 1013.83 1014.39 1014.83 1015.15 1015.39 1015.51 1015.47 1015.55 1015.79 1015.91 1016.07 1016.19 1016.31 1016.31 1016.35 1016.35 1016.19
1007.27 1007.83 1008.27 1008.71 1009.07 1009.39 1009.75 1010.15 1010.55 1010.87 1011.11 1011.39 1011.63 1011.67 1011.95 1012.35 1012.43 1012.63 1012.83 1012.83 1012.87 1013.15 1013.27 1013.19 1013.27 1013.47 1014.11 1014.51 1014.83 1015.11 1015.31 1015.43 1015.23 1015.27 1015.47 1015.59 1015.67 1015.79 1015.91 1015.99 1015.99 1016.07
1006.91 1007.43 1007.99 1008.31 1008.63 1009.07 1009.43 1009.87 1010.23 1010.55 1010.59 1010.71 1011.07 1011.39 1011.75 1011.99 1012.15 1012.35 1012.47 1012.71 1012.79 1012.91 1013.03 1012.91 1012.87 1013.11 1013.71 1014.19 1014.51 1014.83 1015.07 1015.35 1015.15 1015.11 1015.11 1015.19 1015.31 1015.35 1015.43 1015.55 1015.63 1015.79
1006.59 1007.11 1007.63 1007.99 1008.31 1008.71 1009.15 1009.51 1009.79 1010.11 1010.39 1010.47 1010.63 1010.99 1011.35 1011.71 1011.83 1012.07 1012.15 1012.31 1012.47 1012.55 1012.75 1012.83 1012.59 1012.83 1013.35 1013.79 1014.15 1014.51 1014.87 1015.23 1015.03 1014.99 1014.91 1014.95 1014.91 1014.95 1015.03 1015.07 1015.11 1015.19
1006.03 1006.67 1007.19 1007.55 1007.99 1008.39 1008.83 1009.19 1009.43 1009.71 1010.07 1010.11 1010.31 1010.43 1010.55 1010.87 1011.19 1011.31 1011.67 1011.91 1011.99 1012.15 1012.39 1012.55 1012.15 1012.51 1013.03 1013.47 1013.83 1014.27 1014.79 1015.11 1014.87 1014.95 1014.91 1014.79 1014.71 1014.63 1014.63 1014.63 1014.63 1014.75
1005.47 1006.07 1006.67 1007.11 1007.51 1007.99 1008.39 1008.71 1009.03 1009.35 1009.55 1009.63 1010.11 1010.19 1010.39 1010.63 1010.79 1010.95 1010.99 1011.23 1011.47 1011.67 1011.99 1012.03 1011.91 1012.07 1012.59 1013.03 1013.51 1014.07 1014.71 1014.55 1014.51 1014.55 1014.59 1014.63 1014.47 1014.31 1014.27 1014.23 1014.23 1014.23
1004.95 1005.47 1006.15 1006.63 1007.03 1007.47 1007.79 1008.03 1008.31 1008.63 1008.99 1009.07 1009.59 1009.91 1010.11 1010.11 1010.19 1010.43 1010.43 1010.51 1010.79 1011.11 1011.23 1011.63 1011.47 1011.51 1012.11 1012.63 1013.11 1013.71 1013.87 1013.91 1014.07 1014.27 1014.31 1014.31 1014.19 1013.99 1013.91 1013.87 1013.75 1013.87
1004.47 1005.03 1005.59 1006.11 1006.59 1006.91 1007.19 1007.67 1007.95 1008.19 1008.31 1008.59 1008.91 1009.19 1009.47 1009.55 1009.71 1009.95 1010.07 1010.07 1010.11 1010.35 1010.59 1011.03 1010.95 1011.03 1011.59 1012.07 1012.63 1013.11 1013.39 1013.31 1013.47 1013.71 1014.07 1013.95 1013.87 1013.83 1013.59 1013.51 1013.47 1013.43
1003.99 1004.63 1005.07 1005.55 1006.11 1006.55 1006.79 1007.15 1007.39 1007.75 1008.03 1008.27 1008.43 1008.59 1008.91 1008.99 1009.23 1009.43 1009.79 1009.79 1009.67 1009.87 1010.07 1010.27 1010.51 1010.47 1010.91 1011.51 1012.07 1012.51 1012.79 1012.71 1012.79 1013.35 1013.59 1013.55 1013.47 1013.43 1013.51 1013.27 1013.15 1013.07
Wind_Speed
13 12 12 12 11 11 11 11 10 11 10 9 9 9 9 8 9 8 8 8 8 9 8 8 7 7 7 7 6 6 5 6 6 5 6 6 6 7 6 6 5 5
15 14 12 11 10 10 10 11 11 11 10 10 9 8 8 8 9 9 9 8 8 9 8 9 8 8 8 7 7 7 6 6 7 6 6 8 7 6 7 7 6 5
15 15 14 14 13 14 14 12 11 11 11 11 10 9 8 8 9 8 8 9 8 9 9 8 9 8 8 8 7 7 7 7 7 7 7 7 7 6 6 6 6 6
17 16 15 15 14 14 13 12 12 11 11 10 11 11 9 8 8 9 9 9 8 8 8 9 9 9 9 8 8 7 7 7 7 6 7 6 7 7 7 6 6 5
17 16 15 14 14 13 12 13 14 12 13 12 11 11 10 9 9 9 9 9 9 9 8 9 9 9 8 8 8 8 7 7 7 7 7 7 7 7 7 6 6 7
16 16 15 14 14 13 13 14 14 13 13 14 12 11 11 11 10 10 10 10 9 10 10 10 10 10 9 9 8 8 8 8 7 8 8 8 8 7 6 6 7 8
17 17 18 15 15 15 14 14 13 13 13 12 11 11 11 11 11 11 11 10 10 9 10 9 9 9 8 8 8 8 8 8 8 8 8 8 7 8 8 7 7 8
18 17 16 15 16 15 15 14 13 13 13 12 13 12 12 12 12 11 11 11 11 10 10 9 9 9 9 8 9 9 9 8 9 9 9 9 8 8 8 7 7 8
17 17 16 18 18 16 17 16 14 14 13 13 13 12 12 12 12 12 11 11 11 10 10 10 10 10 9 9 9 9 10 10 9 9 10 10 10 9 9 8 9 8
18 17 19 18 18 16 18 17 15 14 14 14 14 13 12 12 12 12 12 12 12 12 11 11 11 11 10 10 10 10 10 10 10 9 9 10 10 10 9 9 9 9
20 19 19 19 19 17 19 18 17 15 14 15 14 14 13 12 12 12 12 12 12 12 12 12 12 12 11 11 10 10 10 10 10 10 10 10 10 10 9 9 9 9
20 19 20 20 19 18 19 18 17 16 15 14 15 15 14 13 13 12 12 13 13 12 12 12 12 12 12 11 12 11 10 10 10 10 10 10 11 10 10 10 9 10
20 20 18 19 18 17 16 16 16 17 16 15 14 15 15 14 14 14 12 13 13 12 13 12 12 12 11 11 11 11 10 10 10 11 10 10 10 11 11 10 10 10
20 19 18 17 16 15 15 16 16 16 15 14 13 15 15 15 15 14 13 12 13 13 12 12 12 11 12 11 11 11 11 11 11 11 11 11 10 10 10 11 11 11
17 17 16 16 16 15 15 15 15 15 14 14 13 13 13 15 15 14 14 13 13 13 13 12 12 12 11 11 11 12 11 12 11 11 11 11 11 10 10 10 10 11
17 15 16 16 16 16 16 15 15 15 15 15 14 14 13 12 13 13 14 14 13 13 13 12 11 10 11 15 13 11 12 10 10 10 11 10 10 10 10 11 11 11
16 16 16 17 16 15 15 16 15 14 14 14 14 14 13 12 12 14 14 13 14 13 14 12 11 11 14 15 15 13 11 10 10 10 10 10 10 10 10 10 10 11
17 17 16 17 16 16 16 16 15 14 14 14 14 14 13 13 13 13 13 13 12 13 13 13 12 12 16 17 17 16 13 11 10 10 10 10 10 11 10 10 10 10
16 17 17 16 16 16 15 14 15 15 15 15 15 14 12 13 13 13 13 13 12 13 13 13 13 13 16 18 18 18 18 15 11 10 10 10 10 11 10 10 9 9
17 17 17 16 16 15 15 15 16 16 16 14 13 13 13 13 14 14 13 13 13 13 12 12 13 13 18 18 18 19 18 15 13 12 11 11 11 11 10 10 11 10
17 17 17 16 16 16 15 16 16 15 15 14 13 14 14 13 13 14 13 13 13 13 12 12 12 13 18 19 19 19 18 15 13 12 11 11 11 11 12 11 11 10
18 17 17 16 16 16 16 16 16 15 15 14 13 12 12 12 12 12 13 14 13 14 14 14 13 15 17 19 19 18 17 11 12 12 12 12 12 12 12 11 11 11
18 18 17 17 17 17 17 17 16 15 14 13 13 13 12 13 12 13 12 14 15 14 15 13 13 14 18 19 19 18 14 11 12 12 12 13 13 12 12 12 12 12
17 18 17 17 17 17 17 16 15 13 14 13 14 14 14 13 12 12 13 13 15 15 14 14 14 14 19 19 19 20 17 13 11 11 12 12 12 12 11 11 12 14
17 17 17 17 17 16 15 16 15 15 13 13 13 13 13 12 12 12 12 12 13 15 14 16 14 12 19 20 21 21 18 13 12 11 12 12 12 12 12 11 12 12
15 16 16 16 16 15 14 14 13 12 14 14 13 13 13 13 13 12 13 12 12 14 13 16 16 12 15 21 21 21 22 14 12 12 12 13 12 11 10 11 12 11
Wind_Direction
197 198 200 202 205 206 201 198 198 200 205 213 216 213 215 210 213 217 217 214 213 215 211 214 216 218 222 221 221 226 237 231 239 225 220 229 228 234 231 229 232 236
198 199 199 202 203 203 203 200 198 200 202 208 218 217 211 212 207 210 210 214 213 218 217 216 217 220 222 222 214 223 225 227 229 225 221 221 231 232 235 232 233 234
196 197 199 201 202 200 201 199 199 200 203 206 210 214 212 207 211 205 210 212 219 222 215 219 221 219 222 221 217 220 221 225 229 232 220 224 229 229 239 235 227 223
196 198 200 204 205 202 201 198 198 202 206 206 209 210 212 213 207 208 207 209 216 220 224 219 223 221 218 220 217 224 224 224 228 232 230 227 228 233 230 235 242 235
194 197 203 204 205 204 200 201 202 201 206 209 209 208 207 209 209 209 207 206 210 216 215 221 219 223 218 220 219 225 227 227 221 224 228 230 230 227 233 231 235 239
196 199 200 202 201 200 201 202 205 204 206 207 208 206 206 203 208 210 210 210 208 213 219 218 218 220 220 216 220 225 229 231 219 214 226 229 236 227 229 225 225 231
192 192 196 198 200 200 204 204 204 206 205 208 204 209 206 204 204 208 209 212 217 215 217 219 221 223 220 219 218 222 226 231 237 223 223 230 229 237 236 229 229 231
193 191 193 196 198 199 203 202 203 202 204 205 208 205 206 205 204 205 207 210 213 214 215 217 215 215 221 218 219 220 224 223 224 224 225 228 234 232 229 234 227 231
193 191 192 194 197 199 201 201 200 202 201 204 208 205 203 208 204 207 204 205 210 210 210 213 211 211 214 220 219 219 222 228 225 222 224 228 227 229 232 229 232 234
192 193 193 195 198 200 202 203 202 201 200 204 206 209 202 203 207 206 203 202 206 207 207 208 207 209 211 213 216 217 220 223 228 229 229 229 232 233 231 229 233 236
192 193 193 196 199 201 203 203 204 203 199 203 204 208 206 199 202 205 204 203 205 205 205 206 206 207 209 214 214 215 218 223 224 226 228 231 234 235 236 237 236 239
193 194 196 197 199 202 203 203 204 205 199 200 204 205 206 205 199 201 203 203 206 206 206 205 206 207 208 212 215 215 215 222 223 226 228 231 233 233 232 231 235 235
192 195 196 197 198 201 201 201 204 204 203 200 200 204 203 206 202 202 202 204 204 207 208 205 206 207 207 207 213 216 217 220 226 226 229 231 233 234 235 231 231 233
193 192 194 195 196 197 201 202 202 204 204 202 199 202 205 206 207 203 202 203 204 206 207 206 205 206 206 207 207 211 213 218 222 229 231 231 232 234 236 236 233 234
189 189 190 190 192 191 197 201 201 201 201 202 200 205 206 208 209 208 203 204 205 205 205 205 206 207 206 204 204 205 211 216 220 225 229 233 235 235 232 233 238 240
185 184 186 187 188 189 192 195 198 198 199 200 201 205 208 210 211 210 209 205 205 204 205 205 208 209 200 197 200 203 205 215 217 223 229 231 231 233 236 235 234 239
181 183 182 185 186 187 187 190 195 196 198 199 202 204 208 205 210 211 213 210 206 205 205 207 207 209 186 185 193 205 208 208 215 221 223 226 228 230 235 237 239 237
180 180 181 183 183 185 184 188 191 194 197 198 201 203 204 206 207 211 213 214 211 211 211 211 213 199 174 183 189 195 205 212 214 220 224 223 225 230 232 234 236 239
177 179 181 180 183 183 183 184 189 195 197 198 201 201 200 206 209 208 210 214 217 216 217 215 220 180 175 182 189 194 200 212 224 226 227 227 227 228 232 232 233 234
177 179 181 182 181 181 182 186 190 195 198 198 199 200 204 207 209 210 209 210 214 218 218 222 227 172 177 182 189 194 198 203 225 229 232 234 233 232 231 231 230 232
179 181 183 182 181 183 186 190 192 195 198 200 201 203 203 206 208 208 209 209 210 214 217 220 229 175 178 182 190 192 195 199 220 229 234 235 235 235 235 236 234 231
180 182 183 182 184 186 190 194 195 196 197 199 204 206 206 205 207 211 208 209 211 213 217 220 223 176 180 184 188 191 184 198 216 226 231 234 234 234 234 234 234 235
183 182 182 184 187 189 194 195 195 196 197 196 201 205 205 205 206 209 210 212 210 211 216 219 225 183 179 183 187 183 177 206 214 223 228 230 235 234 234 234 233 232
184 183 185 187 189 193 194 195 195 195 195 195 200 202 205 206 206 210 211 213 212 213 211 217 226 195 178 181 183 177 186 203 212 220 226 229 234 233 233 235 233 229
182 183 186 188 191 194 193 193 194 194 195 193 199 203 206 206 208 211 213 213 215 217 206 214 226 203 177 181 182 180 190 206 211 219 222 227 229 231 230 233 236 228
180 182 186 189 192 192 193 194 192 193 195 196 199 202 204 208 207 212 213 214 215 216 213 215 223 222 180 183 182 184 191 200 212 215 222 223 226 230 231 230 233 237